« Back
NWS Peachtree City, Ga » Text Product » ATL Terminal Aerodrome Forecast


Printer-friendly Version
Current Version              Previous Versions:   1  2  3  4  5  6  7  8  9  

Terminal Aerodrome Forecast

365
FTUS42 KFFC 250700 AAA
TAFATL
TAF AMD
KATL 250750Z 2508/2612 32007KT P6SM SKC
     FM251600 33008KT P6SM SKC
     FM260200 31004KT P6SM FEW025=

USA.gov is the U.S. government's official web portal to all federal, state and local government web resources and services.